COSMOS 2095

Satellite information

Favourite Embed

Satellite Type and Status

PAYLOADIN ORBIT

Key statistics

Satellite COSMOS 2095 at a glance.

Uptime

12866

Days in orbit

Revolutions

≈ 12.7

Per day

Orbit

LEO

Low Earth Orbit

Inclination

82.6

Latest

Satellite identification and parameters

Extended collection of information and parameters for COSMOS 2095.

Object identification

Identified? True

Debris? False

Object name: COSMOS 2095

International designator: 1990-070F

Object number (NORAD): 20740

Object ID (CCSDS): 20740

Country: COMMONWEALTH OF INDEPENDENT STATES (CIS)

Current information (Y/N): Y

RCS size: LARGE

Orbital parameters

Period: 113.732 minutes

Inclination: 82.5744 deg

SMA: 7775.864 km

Apoapsis: 1412.986 km

Periapsis: 1382.471 km

RAAN: 56.5519 deg

Eccentricy: 0.00196216

Argument of periapsis: 182.1612 deg

Mean anomaly: 245.9052 deg

Mean motion: 12.66134354 rev/day

Mean motion (dot): 0.00000044 rev/day2

B* drag term: 0.00017756301 1/REarth

Two-line elements (TLE)

Creation date: Oct. 28, 2025, 7:11 p.m.

Reference frame: TEME

Reference center: EARTH

Epoch: Oct. 28, 2025, 10:25 a.m. UTC

TLE line 0: 0 COSMOS 2095

TLE line 1: 1 20740U 90070F 25301.43413174 .00000044 00000-0 17756-3 0 9994

TLE line 2: 2 20740 82.5744 56.5519 0019622 182.1612 245.9052 12.66134354627701

Live tracking on map

Real-time ground track for satellite COSMOS 2095.

In-orbit conjunctions

A list of the most updated potential collisions computed for object COSMOS 2095.

Target Orbit TCA Probability of collision Miss distance Type
DELTA 1 DEB SSO 2025-06-14 10:44:12 0.0007415868 319.0 (m) DEBRIS

Associated space launch

Second generation store-dump military communications satellite

COSMOS 2095 was lifted into orbit during the mission ‘Tsiklon-3 | Strela-3 49 to 54’, on board a Tsiklon-3 space rocket.

The launch took place on Aug. 8, 1990, 4:15 a.m. from 32/2.

For more information about the launch, click the button.

Launch to space Tsiklon-3 | Strela-3 49 to 54
Tsiklon-3 | Strela-3 49 to 54

Agency: N/A

Status: Launch Successful

Launch date: Aug. 8, 1990, 4:15 a.m. UTC

Rocket: Tsiklon-3

Launch pad: 32/2

Location: Plesetsk Cosmodrome, Russian Federation

...

Latest news about this satellite

There are no fresh news available about this satellite. Check back as we update our databases every day.


Newsletter sign-up

Weekly statistics, charts and insights to help you stay on top of the space industry.